Change the Weather History Date:

Wednesday, November 23, 2011

  Actual Average Record
Temperature  
Mean Temperature 40 °F -  
Max Temperature 48 °F 33 °F 49 °F (1966)
Min Temperature 33 °F 19 °F -7 °F (1956)
Degree Days  
Heating Degree Days 24    
Moisture  
Dew Point 34 °F    
Average Humidity 81    
Maximum Humidity 93    
Minimum Humidity 62    
Precipitation  
Precipitation 0.00 in - - ()
Sea Level Pressure  
Sea Level Pressure 30.00 in    
Wind  
Wind Speed 11 mph (SW)    
Max Wind Speed 22 mph    
Max Gust Speed 28 mph    
Visibility 6 miles    
Events      
Averages and records for this station are not official NWS values.
T = Trace of Precipitation, MM = Missing Value Source: NWS Daily Summary

Daily Weather History Graph

Daily Weather History Graph

Search for Another Location

Airport or City:

Trip Planner

Search our weather history database for the weather conditions in past years. The results will help you decide how hot, cold, wet, or windy it might be!

Date:

Astronomy

Nov. 23, 2011 Rise Set
Actual Time 7:21 AM CST 4:27 PM CST
Civil Twilight 6:47 AM CST 5:00 PM CST
Nautical Twilight 6:10 AM CST 5:38 PM CST
Astronomical Twilight 5:34 AM CST 6:14 PM CST
Moon 5:23 AM CST (11/23) 3:10 PM CST (11/23)
Length of Visible Light 10h 12m
Length of Day
9h 05m
Waning Crescent, 3% of the Moon is Illuminated
Nov 23
Waning Crescent
Nov 25
New
Dec 2
First Quarter
Dec 10
Full
Dec 17
Last Quarter

Hourly Weather History & Observations

Time (CST) Temp. Windchill Dew Point Humidity Pressure Visibility Wind Dir Wind Speed Gust Speed Precip Events Conditions
12:14 AM 33.8 °F 27.7 °F 30.2 °F 87% 30.06 in 7.0 mi WSW 6.9 mph - N/A   Mostly Cloudy
12:33 AM 33.8 °F 25.8 °F 30.2 °F 87% 30.06 in 5.0 mi WSW 10.4 mph - N/A   Overcast
12:53 AM 33.8 °F 26.4 °F 30.2 °F 87% 30.06 in 5.0 mi WSW 9.2 mph - N/A   Overcast
1:13 AM 35.6 °F 30.7 °F 30.2 °F 81% 30.06 in 5.0 mi SW 5.8 mph - N/A   Overcast
1:34 AM 35.6 °F 29.9 °F 30.2 °F 81% 30.06 in 5.0 mi SW 6.9 mph - N/A   Overcast
1:53 AM 35.6 °F 29.9 °F 30.2 °F 81% 30.06 in 5.0 mi SW 6.9 mph - N/A   Overcast
2:34 AM 35.6 °F 25.5 °F 32.0 °F 87% 30.05 in 5.0 mi WSW 17.3 mph - N/A   Overcast
2:53 AM 35.6 °F 26.6 °F 32.0 °F 87% 30.06 in 5.0 mi WSW 13.8 mph - N/A   Overcast
3:13 AM 35.6 °F 27.1 °F 32.0 °F 87% 30.05 in 5.0 mi WSW 12.7 mph - N/A   Overcast
3:34 AM 35.6 °F 26.6 °F 32.0 °F 87% 30.05 in 5.0 mi WSW 13.8 mph 17.3 mph N/A   Overcast
3:53 AM 35.6 °F 26.6 °F 32.0 °F 87% 30.05 in 5.0 mi WSW 13.8 mph 18.4 mph N/A   Overcast
4:13 AM 35.6 °F 27.5 °F 32.0 °F 87% 30.05 in 5.0 mi WSW 11.5 mph - N/A   Overcast
4:34 AM 35.6 °F 29.2 °F 32.0 °F 87% 30.04 in 5.0 mi SW 8.1 mph - N/A   Overcast
5:13 AM 35.6 °F 27.1 °F 32.0 °F 87% 30.03 in 5.0 mi SW 12.7 mph 16.1 mph N/A   Overcast
5:33 AM 35.6 °F 28.0 °F 32.0 °F 87% 30.03 in 5.0 mi SW 10.4 mph - N/A   Overcast
6:14 AM 35.6 °F 27.5 °F 33.8 °F 93% 30.02 in 4.0 mi SSW 11.5 mph - N/A   Overcast
6:53 AM 35.6 °F 29.9 °F 33.8 °F 93% 30.03 in 4.0 mi SW 6.9 mph - N/A   Overcast
7:34 AM 35.6 °F 30.7 °F 33.8 °F 93% 30.03 in 3.0 mi SSW 5.8 mph - N/A   Overcast
7:54 AM 35.6 °F 29.9 °F 33.8 °F 93% 30.05 in 3.0 mi SW 6.9 mph - N/A   Overcast
8:13 AM 37.4 °F 28.9 °F 33.8 °F 87% 30.05 in 4.0 mi SW 13.8 mph 17.3 mph N/A   Overcast
8:34 AM 37.4 °F 28.9 °F 33.8 °F 87% 30.04 in 4.0 mi SW 13.8 mph 17.3 mph N/A   Overcast
8:53 AM 37.4 °F 28.9 °F 33.8 °F 87% 30.03 in 4.0 mi SW 13.8 mph 18.4 mph N/A   Overcast
9:13 AM 37.4 °F 28.2 °F 33.8 °F 87% 30.03 in 4.0 mi SW 16.1 mph 21.9 mph N/A   Overcast
9:34 AM 37.4 °F 28.5 °F 33.8 °F 87% 30.02 in 4.0 mi SW 15.0 mph - N/A   Overcast
9:54 AM 37.4 °F 27.2 °F 33.8 °F 87% 30.01 in 4.0 mi SSW 19.6 mph 23.0 mph N/A   Overcast
10:13 AM 37.4 °F 28.5 °F 33.8 °F 87% 30.02 in 4.0 mi SW 15.0 mph - N/A   Overcast
10:34 AM 39.2 °F 31.6 °F 35.6 °F 87% 30.03 in 3.0 mi SW 12.7 mph - N/A   Overcast
10:53 AM 39.2 °F 30.8 °F 35.6 °F 87% 30.02 in 3.0 mi SW 15.0 mph - N/A   Mostly Cloudy
11:13 AM 41.0 °F 33.9 °F 35.6 °F 81% 30.01 in 3.0 mi SW 12.7 mph - N/A   Haze
11:34 AM 42.8 °F 34.8 °F 35.6 °F 76% 30.00 in 4.0 mi SSW 17.3 mph - N/A   Haze
12:13 PM 44.6 °F 36.4 °F 35.6 °F 71% 29.98 in 7.0 mi SW 20.7 mph 27.6 mph N/A   Clear
12:33 PM 44.6 °F 36.1 °F 35.6 °F 71% 29.98 in 5.0 mi SW 21.9 mph 26.5 mph N/A   Haze
12:54 PM 44.6 °F 36.6 °F 35.6 °F 71% 29.97 in 7.0 mi SW 19.6 mph 26.5 mph N/A   Clear
1:13 PM 46.4 °F 39.5 °F 35.6 °F 66% 29.97 in 10.0 mi SW 17.3 mph 21.9 mph N/A   Clear
1:33 PM 46.4 °F 39.2 °F 35.6 °F 66% 29.96 in 10.0 mi SW 18.4 mph 24.2 mph N/A   Clear
1:54 PM 46.4 °F 39.8 °F 35.6 °F 66% 29.95 in 10.0 mi SW 16.1 mph - N/A   Clear
2:13 PM 48.2 °F - 35.6 °F 62% 29.95 in 10.0 mi SW 15.0 mph - N/A   Clear
2:34 PM 48.2 °F - 35.6 °F 62% 29.95 in 10.0 mi SW 18.4 mph 24.2 mph N/A   Clear
2:53 PM 48.2 °F - 35.6 °F 62% 29.95 in 10.0 mi SW 20.7 mph 25.3 mph N/A   Clear
3:13 PM 48.2 °F - 35.6 °F 62% 29.95 in 10.0 mi SW 16.1 mph - N/A   Clear
3:34 PM 48.2 °F - 35.6 °F 62% 29.96 in 10.0 mi SW 17.3 mph - N/A   Clear
3:53 PM 48.2 °F - 35.6 °F 62% 29.96 in 10.0 mi SW 13.8 mph - N/A   Clear
4:13 PM 46.4 °F 40.1 °F 35.6 °F 66% 29.95 in 10.0 mi SW 15.0 mph - N/A   Clear
4:33 PM 46.4 °F 40.7 °F 35.6 °F 66% 29.96 in 10.0 mi SW 12.7 mph - N/A   Clear
4:53 PM 44.6 °F 38.8 °F 35.6 °F 71% 29.95 in 10.0 mi SW 11.5 mph - N/A   Clear
5:14 PM 44.6 °F 39.2 °F 35.6 °F 71% 29.96 in 10.0 mi SW 10.4 mph - N/A   Clear
5:53 PM 42.8 °F 36.6 °F 35.6 °F 76% 29.97 in 10.0 mi SW 11.5 mph - N/A   Clear
6:14 PM 42.8 °F 36.6 °F 35.6 °F 76% 29.97 in 10.0 mi SW 11.5 mph - N/A   Clear
6:53 PM 42.8 °F 37.0 °F 35.6 °F 76% 29.97 in 7.0 mi SSW 10.4 mph - N/A   Clear
7:13 PM 42.8 °F 37.0 °F 35.6 °F 76% 29.97 in 7.0 mi SSW 10.4 mph - N/A   Clear
7:33 PM 41.0 °F 35.8 °F 35.6 °F 81% 29.97 in 5.0 mi SW 8.1 mph - N/A   Haze
7:54 PM 39.2 °F 33.0 °F 35.6 °F 87% 29.97 in 5.0 mi SW 9.2 mph - N/A   Clear
8:33 PM 39.2 °F 33.6 °F 35.6 °F 87% 29.96 in 5.0 mi SW 8.1 mph - N/A   Clear
9:13 PM 37.4 °F 31.4 °F 35.6 °F 93% 29.97 in 4.0 mi SW 8.1 mph - N/A   Clear
9:33 PM 37.4 °F 31.4 °F 35.6 °F 93% 29.97 in 4.0 mi SW 8.1 mph - N/A   Clear
9:54 PM 37.4 °F 31.4 °F 35.6 °F 93% 29.96 in 4.0 mi SSW 8.1 mph - N/A   Clear
10:13 PM 37.4 °F 32.1 °F 35.6 °F 93% 29.95 in 4.0 mi SW 6.9 mph - N/A   Clear
10:33 PM 37.4 °F 32.8 °F 35.6 °F 93% 29.95 in 4.0 mi SW 5.8 mph - N/A   Clear
10:54 PM 37.4 °F 32.1 °F 33.8 °F 87% 29.94 in 4.0 mi WSW 6.9 mph - N/A   Clear
11:13 PM 37.4 °F 31.4 °F 35.6 °F 93% 29.95 in 4.0 mi WSW 8.1 mph - N/A   Clear
11:33 PM 37.4 °F 32.1 °F 35.6 °F 93% 29.95 in 4.0 mi SW 6.9 mph - N/A   Clear
11:54 PM 37.4 °F 30.8 °F 35.6 °F 93% 29.93 in 4.0 mi SSW 9.2 mph - N/A   Clear